Weather History for White Mountain, AK

Change the Weather History Date:

Saturday, June 15, 2013

  Actual Average (PAKK) Record (PAKK)
Temperature  
Mean Temperature 52 °F -  
Max Temperature 55 °F 59 °F 75 °F (2002)
Min Temperature 48 °F 44 °F 37 °F (2003)
Degree Days  
Heating Degree Days 14    
Growing Degree Days 2 (Base 50)    
Moisture  
Dew Point 52 °F    
Average Humidity 99    
Maximum Humidity 100    
Minimum Humidity 94    
Precipitation  
Precipitation 0.29 in - - ()
Sea Level Pressure  
Sea Level Pressure 30.14 in    
Wind  
Wind Speed 11 mph (SE)    
Max Wind Speed 21 mph    
Max Gust Speed 29 mph    
Visibility 3 miles    
Events Fog , Rain    
Averages and records for this station are not official NWS values.
T = Trace of Precipitation, MM = Missing Value Source: NWS Daily Summary

Daily Weather History Graph

Daily Weather History Graph

Search for Another Location

Airport:

Trip Planner

Search our weather history database for the weather conditions in past years. The results will help you decide how hot, cold, wet, or windy it might be!

Date:

Astronomy

Jun. 15, 2013 Rise Set
Actual Time 4:07 AM AKDT 1:41 AM AKDT
Civil Twilight Sun does not rise Sun does not rise
Nautical Twilight Sun does not rise Sun does not rise
Astronomical Twilight Sun does not rise Sun does not rise
Moon 2:03 PM AKDT (6/15) 2:24 AM AKDT (6/15)
Length of Visible Light 24h 00m
Length of Day
21h 33m
Waxing Crescent, 41% of the Moon is Illuminated
Jun 15
Waxing Crescent
Jun 16
First Quarter
Jun 23
Full
Jun 29
Last Quarter
Jul 7
New

Hourly Weather History & Observations

Time (AKDT) Temp. Dew Point Humidity Pressure Visibility Wind Dir Wind Speed Gust Speed Precip Events Conditions
12:05 AM 51.8 °F 51.8 °F 100% 30.18 in 4.0 mi South 10.4 mph - N/A   Overcast
12:27 AM 51.8 °F 50.0 °F 94% 30.19 in 9.0 mi SSE 6.9 mph - N/A   Overcast
12:35 AM 51.8 °F 50.0 °F 94% 30.19 in 9.0 mi SSE 6.9 mph - N/A   Overcast
12:58 AM 50.0 °F 50.0 °F 100% 30.22 in 7.0 mi SSE 5.8 mph - 0.00 in Rain Light Rain
1:15 AM 50.0 °F 48.2 °F 94% 30.19 in 8.0 mi SSE 5.8 mph - 0.00 in Rain Light Rain
1:40 AM 50.0 °F 48.2 °F 94% 30.19 in 7.0 mi SSE 4.6 mph - 0.00 in Rain Light Rain
1:58 AM 48.9 °F 48.9 °F 100% 30.22 in 8.0 mi SE 4.6 mph - 0.00 in Rain Light Rain
2:58 AM 48.9 °F 48.9 °F 100% 30.22 in 7.0 mi SE 9.2 mph - 0.00 in Rain Light Rain
3:58 AM 48.9 °F 48.9 °F 100% 30.21 in 6.0 mi ESE 10.4 mph - 0.01 in Rain Light Rain
4:42 AM 50.0 °F 48.2 °F 94% 30.16 in 2.5 mi SE 10.4 mph - 0.02 in Rain Light Rain
4:58 AM 50.0 °F 48.9 °F 96% 30.19 in 2.5 mi ESE 8.1 mph - 0.03 in Rain Light Rain
5:05 AM 48.2 °F 48.2 °F 100% 30.15 in 3.0 mi ESE 8.1 mph - 0.00 in Rain Light Rain
5:25 AM 48.2 °F 48.2 °F 100% 30.15 in 2.0 mi ESE 8.1 mph - 0.00 in Rain Light Rain
5:28 AM 48.2 °F 48.2 °F 100% 30.15 in 1.8 mi ESE 6.9 mph - 0.00 in Rain Light Rain
5:36 AM 48.2 °F 48.2 °F 100% 30.15 in 2.5 mi ESE 8.1 mph - 0.01 in Rain Light Rain
5:42 AM 48.2 °F 48.2 °F 100% 30.15 in 3.0 mi ESE 10.4 mph - 0.01 in Rain Light Rain
5:58 AM 48.9 °F 48.9 °F 100% 30.19 in 4.0 mi ESE 9.2 mph - 0.02 in Rain Light Rain
6:58 AM 50.0 °F 48.9 °F 96% 30.17 in 7.0 mi ESE 10.4 mph - 0.03 in Rain Light Rain
7:58 AM 51.1 °F 50.0 °F 96% 30.16 in 5.0 mi ESE 11.5 mph - 0.03 in Rain Light Rain
8:49 AM 51.8 °F 50.0 °F 94% 30.11 in 8.0 mi SE 10.4 mph - 0.02 in Rain Light Rain
8:58 AM 51.1 °F 51.1 °F 100% 30.15 in 7.0 mi SE 11.5 mph - 0.02 in Rain Light Rain
9:58 AM 51.1 °F 50.0 °F 96% 30.14 in 6.0 mi SE 12.7 mph 20.7 mph 0.01 in Rain Light Rain
10:20 AM 51.8 °F 50.0 °F 94% 30.10 in 6.0 mi SE 16.1 mph 21.9 mph 0.00 in Rain Light Rain
10:58 AM 52.0 °F 51.1 °F 97% 30.13 in 6.0 mi SE 15.0 mph 21.9 mph 0.02 in Rain Light Rain
11:08 AM 51.8 °F 51.8 °F 100% 30.09 in 6.0 mi SE 15.0 mph 21.9 mph 0.00 in Rain Light Rain
11:48 AM 51.8 °F 51.8 °F 100% 30.08 in 6.0 mi SE 17.3 mph 23.0 mph 0.01 in Rain Light Rain
11:58 AM 52.0 °F 51.1 °F 97% 30.12 in 5.0 mi SE 15.0 mph 25.3 mph 0.01 in Rain Light Rain
12:33 PM 51.8 °F 51.8 °F 100% 30.07 in 2.0 mi SE 17.3 mph 21.9 mph 0.02 in Rain Light Rain
12:37 PM 51.8 °F 51.8 °F 100% 30.08 in 1.8 mi SE 17.3 mph 21.9 mph 0.03 in Rain Light Rain
12:40 PM 51.8 °F 51.8 °F 100% 30.08 in 3.0 mi SE 13.8 mph 21.9 mph 0.03 in Rain Light Rain
12:58 PM 52.0 °F 52.0 °F 100% 30.11 in 5.0 mi SE 16.1 mph 21.9 mph 0.03 in Rain Light Rain
1:00 PM 51.8 °F 51.8 °F 100% 30.07 in 5.0 mi SE 15.0 mph 21.9 mph 0.00 in Rain Light Rain
1:29 PM 51.8 °F 51.8 °F 100% 30.07 in 5.0 mi SE 16.1 mph 24.2 mph 0.01 in Rain Light Rain
1:39 PM 53.6 °F 51.8 °F 94% 30.07 in 5.0 mi SE 15.0 mph 20.7 mph 0.01 in Rain Light Rain
1:48 PM 51.8 °F 51.8 °F 100% 30.07 in 3.0 mi SE 17.3 mph 25.3 mph 0.01 in Rain Light Rain
1:56 PM 51.8 °F 51.8 °F 100% 30.08 in 2.5 mi SSE 12.7 mph 23.0 mph 0.01 in Rain Light Rain
1:58 PM 52.0 °F 52.0 °F 100% 30.11 in 2.5 mi SSE 17.3 mph 23.0 mph 0.01 in Rain Light Rain
2:09 PM 51.8 °F 51.8 °F 100% 30.08 in 3.0 mi SSE 17.3 mph 25.3 mph 0.00 in Rain Light Rain
2:14 PM 51.8 °F 51.8 °F 100% 30.08 in 2.5 mi SSE 19.6 mph 26.5 mph 0.00 in Rain Light Rain
2:23 PM 53.6 °F 51.8 °F 94% 30.08 in 1.5 mi SSE 16.1 mph 25.3 mph 0.00 in Rain Light Rain
2:28 PM 53.6 °F 51.8 °F 94% 30.09 in 0.8 mi SSE 13.8 mph 24.2 mph 0.00 in Rain Light Rain
2:42 PM 53.6 °F 51.8 °F 94% 30.08 in 0.5 mi SSE 16.1 mph 20.7 mph 0.01 in Fog , Rain Light Rain
2:50 PM 53.6 °F 53.6 °F 100% 30.09 in 1.0 mi SSE 16.1 mph 24.2 mph 0.01 in Rain Light Rain
2:58 PM 53.1 °F 53.1 °F 100% 30.13 in 1.0 mi SSE 16.1 mph 24.2 mph 0.01 in Rain Light Rain
3:00 PM 53.6 °F 53.6 °F 100% 30.09 in 0.5 mi SSE 13.8 mph 24.2 mph 0.00 in Fog , Rain Light Rain
3:05 PM 53.6 °F 53.6 °F 100% 30.09 in 0.2 mi SSE 17.3 mph 24.2 mph 0.00 in Fog , Rain Light Rain
3:18 PM 53.6 °F 53.6 °F 100% 30.09 in 0.8 mi South 20.7 mph 26.5 mph 0.00 in Rain Light Rain
3:22 PM 53.6 °F 53.6 °F 100% 30.09 in 1.2 mi South 20.7 mph 26.5 mph 0.00 in Rain Light Rain
3:37 PM 53.6 °F 53.6 °F 100% 30.10 in 2.0 mi South 18.4 mph 27.6 mph 0.00 in Rain Light Rain
3:50 PM 53.6 °F 53.6 °F 100% 30.10 in 1.8 mi South 18.4 mph 28.8 mph 0.00 in Rain Light Rain
3:58 PM 53.1 °F 53.1 °F 100% 30.14 in 2.5 mi South 17.3 mph 24.2 mph 0.00 in Rain Light Rain
4:13 PM 53.6 °F 53.6 °F 100% 30.11 in 1.5 mi South 18.4 mph 26.5 mph 0.00 in Rain Light Rain
4:17 PM 53.6 °F 53.6 °F 100% 30.11 in 0.8 mi South 16.1 mph 26.5 mph 0.00 in Rain Light Rain
4:21 PM 53.6 °F 53.6 °F 100% 30.11 in 0.2 mi South 16.1 mph 26.5 mph 0.00 in Fog , Rain Light Rain
4:58 PM 53.1 °F 52.0 °F 96% 30.15 in 0.2 mi South 15.0 mph - 0.01 in Fog , Rain Light Rain
5:58 PM 51.1 °F 51.1 °F 100% 30.17 in 0.2 mi SSW 8.1 mph - 0.01 in Fog , Rain Light Rain
6:58 PM 52.0 °F 52.0 °F 100% 30.17 in 0.2 mi South 6.9 mph - 0.01 in Fog , Rain Light Rain
7:58 PM 53.1 °F 53.1 °F 100% 30.19 in 0.2 mi SE 5.8 mph - 0.01 in Fog , Rain Light Rain
8:43 PM 53.6 °F 53.6 °F 100% 30.15 in 0.5 mi ESE 4.6 mph - 0.00 in Fog , Rain Light Rain
8:51 PM 53.6 °F 53.6 °F 100% 30.15 in 0.5 mi ESE 3.5 mph - 0.00 in Fog , Rain Light Rain
8:58 PM 54.0 °F 54.0 °F 100% 30.19 in 0.5 mi SE 5.8 mph - 0.00 in Fog , Rain Light Rain
9:04 PM 53.6 °F 53.6 °F 100% 30.15 in 0.8 mi SE 5.8 mph - 0.00 in Rain Light Rain
9:16 PM 53.6 °F 53.6 °F 100% 30.15 in 0.5 mi SE 5.8 mph - 0.00 in Fog , Rain Light Rain
9:27 PM 55.4 °F 55.4 °F 100% 30.15 in 0.2 mi SSE 4.6 mph - 0.01 in Fog , Rain Light Rain
9:39 PM 55.4 °F 55.4 °F 100% 30.15 in 0.5 mi SSE 6.9 mph - 0.01 in Fog , Rain Light Rain
9:46 PM 55.4 °F 55.4 °F 100% 30.15 in 0.2 mi South 6.9 mph - 0.01 in Fog , Rain Light Rain
9:58 PM 55.0 °F 55.0 °F 100% 30.19 in 0.2 mi South 8.1 mph - 0.01 in Fog , Rain Light Rain
10:25 PM 55.4 °F 55.4 °F 100% 30.16 in 0.2 mi South 8.1 mph - 0.01 in Fog , Rain Light Rain
10:58 PM 55.0 °F 55.0 °F 100% 30.21 in 0.2 mi South 10.4 mph - 0.01 in Fog , Rain Light Rain
11:58 PM 53.1 °F 53.1 °F 100% 30.23 in 0.2 mi South 5.8 mph - 0.00 in Fog Fog